When you browse on this site, cookies collect data to enhance your experience and personalize the content and advertising you see.
Visit our Privacy Policy to learn more. By continuing to use the site, you agree to this use of cookies and data.
  • în România
  • Lista ţărilor
  • Pe 7 zile
  • Temperatura apei
  • Hartă satelitară
  • Meteo pe hartă
  • Widget-uri
  • user-avatar
    Intrare

    Meteo pe oră la Ashanivka

    Astăzi, 18 Iulie, Joi

    Timp Temperatura Precipitaţii Vânt Presiune Umiditate
    00:00 +13°C° 0 mm 3 m/s 745 mmHg 92%
    01:00 +13°C° 0 mm 3 m/s 745 mmHg 93%
    02:00 +12°C° 0 mm 3 m/s 745 mmHg 96%
    03:00 +12°C° 0 mm 3 m/s 745 mmHg 95%
    04:00 +12°C° 0 mm 3 m/s 746 mmHg 95%
    05:00 +12°C° 0 mm 3 m/s 746 mmHg 94%
    06:00 +13°C° 0 mm 3 m/s 746 mmHg 88%
    07:00 +14°C° 0 mm 4 m/s 746 mmHg 82%
    08:00 +17°C° 0 mm 4 m/s 746 mmHg 74%
    09:00 +18°C° 0 mm 4 m/s 747 mmHg 68%
    10:00 +19°C° 0 mm 4 m/s 747 mmHg 63%
    11:00 +20°C° 0 mm 4 m/s 747 mmHg 57%
    12:00 +21°C° 0 mm 4 m/s 747 mmHg 55%
    13:00 +22°C° 0 mm 4 m/s 747 mmHg 54%
    14:00 +22°C° 0 mm 5 m/s 747 mmHg 52%
    15:00 +22°C° 0 mm 5 m/s 747 mmHg 54%
    16:00 +22°C° 0 mm 5 m/s 747 mmHg 56%
    17:00 +22°C° 0 mm 5 m/s 748 mmHg 58%
    18:00 +20°C° 0 mm 4 m/s 748 mmHg 66%
    19:00 +19°C° 0 mm 4 m/s 748 mmHg 74%
    20:00 +17°C° 0 mm 3 m/s 748 mmHg 82%
    21:00 +16°C° 0 mm 3 m/s 748 mmHg 85%
    22:00 +16°C° 0 mm 3 m/s 748 mmHg 88%
    23:00 +14°C° 0 mm 3 m/s 749 mmHg 91%

    Mâine, 19 Iulie, Vineri

    Timp Temperatura Precipitaţii Vânt Presiune Umiditate
    00:00 +14°C° 0 mm 3 m/s 749 mmHg 92%
    01:00 +13°C° 0 mm 3 m/s 749 mmHg 93%
    02:00 +13°C° 0 mm 3 m/s 749 mmHg 93%
    03:00 +13°C° 0 mm 3 m/s 749 mmHg 93%
    04:00 +13°C° 0 mm 3 m/s 749 mmHg 93%
    05:00 +13°C° 0 mm 3 m/s 750 mmHg 93%
    06:00 +15°C° 0 mm 4 m/s 750 mmHg 86%
    07:00 +18°C° 0 mm 4 m/s 750 mmHg 79%
    08:00 +20°C° 0 mm 5 m/s 751 mmHg 72%
    09:00 +21°C° 0 mm 5 m/s 751 mmHg 67%
    10:00 +22°C° 0 mm 5 m/s 751 mmHg 62%
    11:00 +25°C° 0 mm 5 m/s 751 mmHg 57%
    12:00 +25°C° 0 mm 4 m/s 751 mmHg 55%
    13:00 +26°C° 0 mm 4 m/s 751 mmHg 53%
    14:00 +26°C° 0 mm 4 m/s 751 mmHg 51%
    15:00 +26°C° 0 mm 4 m/s 751 mmHg 53%
    16:00 +26°C° 0 mm 4 m/s 751 mmHg 54%
    17:00 +25°C° 0 mm 4 m/s 751 mmHg 56%
    18:00 +24°C° 0 mm 3 m/s 751 mmHg 62%
    19:00 +21°C° 0 mm 2 m/s 752 mmHg 69%
    20:00 +19°C° 0 mm 2 m/s 752 mmHg 75%
    21:00 +19°C° 0 mm 2 m/s 752 mmHg 77%
    22:00 +18°C° 0 mm 2 m/s 753 mmHg 80%
    23:00 +17°C° 0 mm 2 m/s 753 mmHg 82%

    Poimâine, 20 Iulie, Sâmbătă

    Timp Temperatura Precipitaţii Vânt Presiune Umiditate
    00:00 +18°C° 0 mm 1 m/s 753 mmHg 83%
    01:00 +16°C° 0 mm 1 m/s 753 mmHg 84%
    02:00 +16°C° 0 mm 1 m/s 753 mmHg 84%
    03:00 +16°C° 0 mm 1 m/s 753 mmHg 84%
    04:00 +16°C° 0 mm 1 m/s 753 mmHg 84%
    05:00 +16°C° 0 mm 1 m/s 753 mmHg 84%
    06:00 +18°C° 0 mm 2 m/s 754 mmHg 77%
    07:00 +20°C° 0 mm 2 m/s 754 mmHg 71%
    08:00 +23°C° 0 mm 2 m/s 754 mmHg 64%
    09:00 +24°C° 0.1 mm 2 m/s 754 mmHg 61%
    10:00 +25°C° 0.1 mm 2 m/s 754 mmHg 57%
    11:00 +26°C° 0.1 mm 2 m/s 754 mmHg 54%
    12:00 +26°C° 1.2 mm 2 m/s 754 mmHg 57%
    13:00 +26°C° 1.2 mm 3 m/s 754 mmHg 60%
    14:00 +26°C° 1.2 mm 3 m/s 754 mmHg 63%
    15:00 +25°C° 0.2 mm 2 m/s 754 mmHg 65%
    16:00 +25°C° 0.2 mm 2 m/s 754 mmHg 66%
    17:00 +25°C° 0.2 mm 1 m/s 754 mmHg 67%
    18:00 +23°C° 0.2 mm 1 m/s 754 mmHg 72%
    19:00 +22°C° 0.2 mm 1 m/s 754 mmHg 76%
    20:00 +21°C° 0.2 mm 1 m/s 754 mmHg 80%
    21:00 +20°C° 1.2 mm 1 m/s 754 mmHg 83%
    22:00 +20°C° 1.2 mm 1 m/s 754 mmHg 85%
    23:00 +19°C° 1.2 mm 1 m/s 755 mmHg 87%

    21 Iulie, Duminică

    Timp Temperatura Precipitaţii Vânt Presiune Umiditate
    00:00 +19°C° 0.1 mm 1 m/s 754 mmHg 88%
    01:00 +18°C° 0.1 mm 1 m/s 754 mmHg 88%
    02:00 +18°C° 0.1 mm 1 m/s 754 mmHg 89%
    03:00 +18°C° 0 mm 1 m/s 754 mmHg 89%
    04:00 +18°C° 0 mm 1 m/s 754 mmHg 89%
    05:00 +18°C° 0 mm 1 m/s 754 mmHg 90%
    06:00 +20°C° 0 mm 1 m/s 754 mmHg 84%
    07:00 +21°C° 0 mm 1 m/s 755 mmHg 79%
    08:00 +23°C° 0 mm 1 m/s 755 mmHg 74%
    09:00 +24°C° 0 mm 1 m/s 755 mmHg 68%
    10:00 +25°C° 0 mm 2 m/s 755 mmHg 61%
    11:00 +27°C° 0 mm 2 m/s 755 mmHg 55%
    12:00 +27°C° 0 mm 2 m/s 755 mmHg 54%
    13:00 +27°C° 0 mm 2 m/s 754 mmHg 53%
    14:00 +27°C° 0 mm 2 m/s 754 mmHg 52%
    15:00 +27°C° 0 mm 2 m/s 754 mmHg 52%
    16:00 +27°C° 0 mm 2 m/s 754 mmHg 52%
    17:00 +27°C° 0 mm 2 m/s 754 mmHg 52%
    18:00 +25°C° 0 mm 2 m/s 754 mmHg 56%
    19:00 +24°C° 0 mm 1 m/s 754 mmHg 61%
    20:00 +22°C° 0 mm 1 m/s 754 mmHg 65%
    21:00 +21°C° 0 mm 1 m/s 754 mmHg 66%
    22:00 +21°C° 0 mm 1 m/s 754 mmHg 68%
    23:00 +18°C° 0 mm 0 m/s 754 mmHg 69%

    22 Iulie, Luni

    Timp Temperatura Precipitaţii Vânt Presiune Umiditate
    00:00 +20°C° 0 mm 1 m/s 754 mmHg 71%
    01:00 +19°C° 0 mm 1 m/s 754 mmHg 72%
    02:00 +19°C° 0 mm 1 m/s 754 mmHg 74%
    03:00 +19°C° 0 mm 1 m/s 753 mmHg 76%
    04:00 +19°C° 0 mm 1 m/s 753 mmHg 77%
    05:00 +18°C° 0 mm 2 m/s 753 mmHg 79%
    06:00 +20°C° 0 mm 2 m/s 753 mmHg 74%
    07:00 +23°C° 0 mm 2 m/s 753 mmHg 70%
    08:00 +25°C° 0 mm 3 m/s 753 mmHg 65%
    09:00 +26°C° 0.1 mm 3 m/s 753 mmHg 63%
    10:00 +27°C° 0.1 mm 3 m/s 752 mmHg 60%
    11:00 +28°C° 0.1 mm 3 m/s 752 mmHg 57%
    12:00 +28°C° 1.8 mm 3 m/s 752 mmHg 60%
    13:00 +28°C° 1.8 mm 4 m/s 751 mmHg 62%
    14:00 +28°C° 1.8 mm 4 m/s 751 mmHg 65%
    15:00 +28°C° 0.8 mm 4 m/s 751 mmHg 65%
    16:00 +28°C° 0.8 mm 4 m/s 751 mmHg 65%
    17:00 +28°C° 0.8 mm 3 m/s 750 mmHg 65%
    18:00 +26°C° 0.4 mm 3 m/s 750 mmHg 72%
    19:00 +25°C° 0.4 mm 3 m/s 750 mmHg 78%
    20:00 +22°C° 0.4 mm 3 m/s 750 mmHg 85%
    21:00 +21°C° 0 mm 3 m/s 750 mmHg 87%
    22:00 +20°C° 0 mm 3 m/s 750 mmHg 89%
    23:00 +20°C° 0 mm 3 m/s 750 mmHg 91%

    23 Iulie, Marţi

    Timp Temperatura Precipitaţii Vânt Presiune Umiditate
    00:00 +19°C° 0 mm 3 m/s 750 mmHg 92%
    01:00 +19°C° 0 mm 3 m/s 750 mmHg 93%
    02:00 +18°C° 0 mm 3 m/s 750 mmHg 93%
    03:00 +18°C° 0 mm 3 m/s 749 mmHg 94%
    04:00 +18°C° 0 mm 3 m/s 749 mmHg 94%
    05:00 +18°C° 0 mm 4 m/s 749 mmHg 94%
    06:00 +19°C° 0 mm 4 m/s 749 mmHg 89%
    07:00 +20°C° 0 mm 4 m/s 749 mmHg 83%
    08:00 +21°C° 0 mm 5 m/s 749 mmHg 78%
    09:00 +22°C° 0 mm 5 m/s 749 mmHg 74%
    10:00 +23°C° 0 mm 5 m/s 749 mmHg 70%
    11:00 +25°C° 0 mm 5 m/s 749 mmHg 66%
    12:00 +25°C° 0.6 mm 5 m/s 749 mmHg 66%
    13:00 +25°C° 0.6 mm 5 m/s 749 mmHg 66%
    14:00 +25°C° 0.6 mm 5 m/s 748 mmHg 67%
    15:00 +25°C° 0.3 mm 5 m/s 748 mmHg 69%
    16:00 +23°C° 0.3 mm 5 m/s 748 mmHg 72%
    17:00 +23°C° 0.3 mm 5 m/s 748 mmHg 74%
    18:00 +21°C° 0 mm 4 m/s 748 mmHg 78%
    19:00 +20°C° 0 mm 3 m/s 748 mmHg 82%
    20:00 +19°C° 0 mm 2 m/s 748 mmHg 86%
    21:00 +18°C° 0 mm 3 m/s 748 mmHg 89%
    22:00 +18°C° 0 mm 3 m/s 748 mmHg 91%
    23:00 +18°C° 0 mm 3 m/s 748 mmHg 93%
    Arată mai mult